User: anonymous   Login
Location: Unspecified
(0.0000°N, 0.0000°E)
Time: 07:38:03
(UTC+00:00)
Language:

CANX-2 - Orbit

View from above orbital plane
View from above orbital plane
View from above satellite
View from above satellite

Ground track
Ground track

The orbit data is extracted from the following two-line orbital elements,

1 32790U 08021H   17289.83156667 +.00000340 +00000-0 +42952-4 0  9994
2 32790 097.5592 306.8101 0015113 123.8078 236.4580 14.87695474512842
Epoch (UTC): 16 October 2017 19:57:27
Eccentricity: 0.0015113
inclination: 97.5592°
perigee height: 594 km
apogee height: 615 km
right ascension of ascending node: 306.8101°
argument of perigee: 123.8078°
revolutions per day: 14.87695474
mean anomaly at epoch: 236.4580°
orbit number at epoch: 51284

The dashed part of the orbit path shows where the satellite is in the earth's shadow,  

DLR